Weather History for Cape Girardeau, MO

Change the Weather History Date:

Monday, July 15, 2013

  Actual Average Record
Temperature  
Mean Temperature 81 °F 79 °F  
Max Temperature 90 °F 90 °F 105 °F (1980)
Min Temperature 71 °F 68 °F 55 °F (1967)
Degree Days  
Heating Degree Days 0 0  
Month to date heating degree days 0 0  
Since 1 June heating degree days 0 4  
Since 1 July heating degree days 0 0  
Cooling Degree Days 16 14  
Month to date cooling degree days 157 207  
Year to date cooling degree days 661 671  
Since 1 June cooling degree days 490 519  
Growing Degree Days 30 (Base 50)    
Moisture  
Dew Point 73 °F    
Average Humidity 75    
Maximum Humidity 94    
Minimum Humidity 56    
Precipitation  
Precipitation 0.03 in 0.11 in 3.61 in (1971)
Month to date precipitation 0.14 1.65  
Year to date precipitation 24.07 26.32  
Sea Level Pressure  
Sea Level Pressure 30.18 in    
Wind  
Wind Speed 7 mph (SE)    
Max Wind Speed 15 mph    
Max Gust Speed 18 mph    
Visibility 10 miles    
Events Rain    
T = Trace of Precipitation, MM = Missing Value Source: NWS Daily Summary

Daily Weather History Graph

Daily Weather History Graph

Search for Another Location

Airport:

Trip Planner

Search our weather history database for the weather conditions in past years. The results will help you decide how hot, cold, wet, or windy it might be!

Date:

Astronomy

Jul. 15, 2013 Rise Set
Actual Time 5:50 AM CDT 8:18 PM CDT
Civil Twilight 5:19 AM CDT 8:48 PM CDT
Nautical Twilight 4:42 AM CDT 9:25 PM CDT
Astronomical Twilight 4:01 AM CDT 10:06 PM CDT
Moon 12:58 PM CDT (7/15) No Moon Set
Length of Visible Light 15h 28m
Length of Day
14h 28m
Waxing Crescent, 45% of the Moon is Illuminated
Jul 15
Waxing Crescent
Jul 15
First Quarter
Jul 22
Full
Jul 29
Last Quarter
Aug 6
New

Hourly Weather History & Observations

Time (CDT) Temp. Heat Index Dew Point Humidity Pressure Visibility Wind Dir Wind Speed Gust Speed Precip Events Conditions
12:53 AM 73.0 °F - 71.1 °F 93% 30.12 in 10.0 mi East 3.5 mph - N/A   Clear
1:53 AM 71.1 °F - 70.0 °F 96% 30.12 in 4.0 mi West 3.5 mph - N/A   Clear
2:53 AM 73.0 °F - 71.1 °F 93% 30.12 in 10.0 mi East 3.5 mph - N/A   Clear
3:53 AM 73.0 °F - 70.0 °F 90% 30.12 in 10.0 mi East 4.6 mph - N/A   Clear
4:53 AM 73.9 °F - 71.1 °F 91% 30.14 in 10.0 mi East 5.8 mph - N/A   Clear
5:53 AM 73.9 °F - 71.1 °F 91% 30.16 in 10.0 mi SE 6.9 mph - N/A   Partly Cloudy
6:53 AM 73.9 °F - 71.1 °F 91% 30.18 in 10.0 mi SE 8.1 mph - N/A   Clear
7:53 AM 77.0 °F - 72.0 °F 84% 30.19 in 10.0 mi SSE 8.1 mph - N/A   Clear
8:53 AM 79.0 °F - 73.0 °F 82% 30.20 in 10.0 mi SSE 10.4 mph 17.3 mph N/A   Partly Cloudy
9:14 AM 80.6 °F 85.4 °F 73.4 °F 79% 30.21 in 10.0 mi SSE 8.1 mph - N/A   Mostly Cloudy
9:32 AM 80.6 °F 85.4 °F 73.4 °F 79% 30.21 in 10.0 mi SSE 9.2 mph - N/A   Mostly Cloudy
9:53 AM 81.0 °F 85.8 °F 73.0 °F 77% 30.21 in 10.0 mi South 8.1 mph - N/A   Mostly Cloudy
10:53 AM 82.9 °F 88.8 °F 73.0 °F 72% 30.22 in 10.0 mi Variable 4.6 mph - N/A   Mostly Cloudy
11:18 AM 84.2 °F 90.9 °F 73.4 °F 70% 30.22 in 10.0 mi SE 8.1 mph - N/A   Scattered Clouds
11:53 AM 86.0 °F 93.8 °F 73.9 °F 67% 30.21 in 10.0 mi SE 10.4 mph - N/A   Mostly Cloudy
12:53 PM 86.0 °F 93.8 °F 73.9 °F 67% 30.20 in 10.0 mi Variable 3.5 mph - N/A   Mostly Cloudy
1:31 PM 82.4 °F 88.2 °F 73.4 °F 74% 30.20 in 10.0 mi South 6.9 mph - N/A   Overcast
1:53 PM 87.1 °F 96.3 °F 75.0 °F 67% 30.19 in 10.0 mi South 3.5 mph - N/A   Mostly Cloudy
2:03 PM 86.0 °F 93.4 °F 73.4 °F 66% 30.19 in 10.0 mi Calm Calm - N/A   Overcast
2:53 PM 90.0 °F 96.9 °F 72.0 °F 55% 30.16 in 10.0 mi ESE 9.2 mph - N/A   Partly Cloudy
3:53 PM 89.1 °F 95.0 °F 71.1 °F 55% 30.15 in 10.0 mi East 13.8 mph - N/A   Clear
4:53 PM 87.1 °F 93.6 °F 72.0 °F 61% 30.14 in 10.0 mi East 11.5 mph - N/A   Mostly Cloudy
5:53 PM 84.0 °F 90.2 °F 73.0 °F 69% 30.15 in 8.0 mi South 12.7 mph - N/A   Overcast
6:01 PM 78.8 °F - 73.4 °F 83% 30.16 in 2.5 mi South 6.9 mph 16.1 mph 0.03 in Rain Light Rain
6:10 PM 78.8 °F - 75.2 °F 89% 30.16 in 10.0 mi Calm Calm - 0.03 in Rain Light Rain
6:53 PM 82.9 °F 90.2 °F 75.0 °F 77% 30.16 in 10.0 mi East 8.1 mph - 0.03 in   Scattered Clouds
7:53 PM 82.0 °F 88.6 °F 75.0 °F 79% 30.17 in 10.0 mi East 9.2 mph - N/A   Mostly Cloudy
8:53 PM 78.1 °F - 73.9 °F 87% 30.19 in 10.0 mi ESE 3.5 mph - N/A   Partly Cloudy
9:53 PM 77.0 °F - 73.9 °F 90% 30.22 in 10.0 mi ESE 3.5 mph - N/A   Clear
10:53 PM 77.0 °F - 73.0 °F 88% 30.22 in 10.0 mi East 4.6 mph - N/A   Clear
11:53 PM 75.0 °F - 73.0 °F 94% 30.22 in 10.0 mi ESE 3.5 mph - N/A   Clear